Location: Warszawa
(52.2500°N, 21.0000°E)
Time: 14:46:19
(UTC+02:00)

Vanguard 2 - Pass Details

Date: 10 February 2023
Orbit: 553 x 2927 km, 32.9° (Epoch: 27 March)

Event Time Altitude Azimuth Distance (km) Brightness Sun altitude
Rises 17:33:25 0° 180° (S) 4,254 11.5 -8.7°
Reaches altitude 10° 17:39:57 10° 144° (SE) 3,958 10.9 -9.7°
Maximum altitude 17:41:42 11° 135° (SE) 4,088 10.9 -10.0°
Drops below altitude 10° 17:43:34 10° 125° (SE) 4,306 10.9 -10.2°
Enters shadow 17:47:49 - 108° (ESE) 5,019 11.1 -10.9°
Sets 17:52:45 0° 94° (E) 6,053 - -11.6°
